Regional Weather Roundup
Issued by NWS

Home | Current Version | Previous Version | Text Only | Print | Product List | Glossary Off
Versions: 1 2 3 4 5 6 7 8 9 10 11 12 13 14 15 16 17 18 19 20 21 22 23 24 25 26 27 28 29 30 31 32 33 34 35 36 37 38 39 40 41 42 43 44 45 46 47 48 49 50

000
ASUS43 KLMK 180202
RWRKY
KENTUCKY REGIONAL WEATHER ROUNDUP
NATIONAL WEATHER SERVICE LOUISVILLE KY
1000 PM EDT TUE OCT 17 2017

NOTE "FAIR" INDICATES FEW OR NO CLOUDS BELOW 12,000 FEET
WITH NO SIGNIFICANT WEATHER AND/OR OBSTRUCTIONS TO VISIBILITY.

KYZ001>023-026-027-061>063-070>075-180300-
WESTERN AND SOUTH CENTRAL KENTUCKY

CITY           SKY/WX    TMP DP  RH WIND       PRES   REMARKS
PADUCAH        CLEAR     47  42  83 CALM      30.24S
HENDERSON      NOT AVBL
OWENSBORO      CLEAR     52  46  80 SE6       30.26F
HOPKINSVILLE   CLEAR     53  45  75 CALM      30.25S
BOWLING GREEN  CLEAR     50  45  83 CALM      30.28R
GLASGOW        NOT AVBL
$$

KYZ024-025-028>034-038-045-046-053-180300-
NORTH CENTRAL KENTUCKY

CITY           SKY/WX    TMP DP  RH WIND       PRES   REMARKS
LOUISVILLE/SDF CLOUDY    57  45  64 CALM      30.27S
LOUISVILLE/LOU CLEAR     51  46  83 CALM      30.28S
FORT KNOX      PTCLDY    48  44  86 CALM      30.26S
$$

KYZ035>037-039>044-047>052-055>060-089>105-180300-
NORTHEAST KENTUCKY

CITY           SKY/WX    TMP DP  RH WIND       PRES   REMARKS
LEXINGTON      CLEAR     50  42  74 CALM      30.29S
COVINGTON      PTCLDY    51  45  79 S6        30.27S
FRANKFORT      CLOUDY    47  41  80 CALM      30.28R
$$

KYZ054-064>069-076>088-106>120-180300-
SOUTHEAST KENTUCKY

CITY           SKY/WX    TMP DP  RH WIND       PRES   REMARKS
JACKSON        CLEAR     54  39  57 CALM      30.31R
LONDON         CLEAR     48  44  86 CALM      30.30R
SOMERSET       NOT AVBL
MIDDLESBORO    CLEAR     45  44  96 CALM      30.32S
MONTICELLO     CLEAR     42  41  96 NE9       30.32R
$$





USA.gov is the U.S. government's official web portal to all federal, state and local government web resources and services.